| time (UTC) | temp C | wind direction | speed KPH | gust KPH | rain 1hr cm | rain 24hr cm | rain mn cm | humidity % | barometer mb |
| 20260509151607 | 18 | 5 | 3.2 | 12.9 | 0.00 | 0.00 | 0.00 | 67 | 1004.0 |
| 20260509150051 | 17 | 5 | 3.2 | 16.1 | 0.00 | 0.00 | 0.00 | 70 | 1003.8 |
| 20260509144554 | 17 | 9 | 6.4 | 17.7 | 0.00 | 0.00 | 0.00 | 73 | 1003.8 |
| 20260509143053 | 16 | 5 | 4.8 | 16.1 | 0.00 | 0.00 | 0.00 | 75 | 1003.7 |
| 20260509141554 | 16 | 9 | 4.8 | 14.5 | 0.00 | 0.00 | 0.00 | 78 | 1003.7 |
| 20260509140053 | 15 | 360 | 4.8 | 16.1 | 0.00 | 0.00 | 0.00 | 79 | 1003.9 |
| 20260509134551 | 15 | 360 | 4.8 | 16.1 | 0.00 | 0.00 | 0.00 | 81 | 1003.6 |
| 20260509133050 | 14 | 360 | 3.2 | 16.1 | 0.00 | 0.00 | 0.00 | 86 | 1003.7 |
| 20260509131552 | 13 | 360 | 4.8 | 16.1 | 0.00 | 0.00 | 0.00 | 89 | 1003.7 |
| 20260509124552 | 12 | 360 | 4.8 | 14.5 | 0.00 | 0.00 | 0.00 | 93 | 1003.7 |
| 20260509123053 | 11 | 360 | 4.8 | 17.7 | 0.00 | 0.00 | 0.00 | 94 | 1003.6 |
| 20260509121555 | 11 | 360 | 3.2 | 14.5 | 0.00 | 0.00 | 0.00 | 94 | 1003.5 |
| 20260509120058 | 10 | 5 | 1.6 | 8.0 | 0.00 | 0.00 | 0.00 | 94 | 1003.6 |
| 20260509114553 | 10 | 360 | 1.6 | 8.0 | 0.00 | 0.00 | 0.00 | 94 | 1003.5 |
| 20260509113049 | 10 | 5 | 1.6 | 8.0 | 0.00 | 0.00 | 0.00 | 94 | 1003.3 |
| 20260509111546 | 10 | 9 | 0.0 | 8.0 | 0.00 | 0.00 | 0.00 | 94 | 1003.4 |
| 20260509110057 | 10 | 9 | 1.6 | 6.4 | 0.00 | 0.00 | 0.00 | 93 | 1003.0 |
| 20260509104549 | 10 | 5 | 0.0 | 9.7 | 0.00 | 0.00 | 0.00 | 93 | 1003.0 |
| 20260509103051 | 10 | 9 | 1.6 | 6.4 | 0.00 | 0.00 | 0.00 | 94 | 1002.9 |
| 20260509101549 | 10 | 9 | 1.6 | 8.0 | 0.00 | 0.00 | 0.00 | 93 | 1003.0 |
| 20260509100050 | 10 | 5 | 1.6 | 8.0 | 0.00 | 0.00 | 0.00 | 93 | 1003.3 |
| 20260509094551 | 10 | 0 | 0.0 | 8.0 | 0.00 | 0.00 | 0.00 | 93 | 1003.2 |
| 20260509093052 | 10 | 5 | 0.0 | 6.4 | 0.00 | 0.00 | 0.00 | 93 | 1003.5 |
| 20260509091546 | 10 | 9 | 0.0 | 8.0 | 0.00 | 0.00 | 0.00 | 92 | 1003.5 |
| 20260509090049 | 10 | 5 | 1.6 | 8.0 | 0.00 | 0.00 | 0.00 | 92 | 1003.7 |
| 20260509084552 | 10 | 5 | 0.0 | 6.4 | 0.00 | 0.00 | 0.00 | 92 | 1003.8 |
| 20260509083050 | 10 | 0 | 1.6 | 4.8 | 0.00 | 0.00 | 0.00 | 92 | 1003.8 |
| 20260509081553 | 10 | 5 | 0.0 | 4.8 | 0.00 | 0.00 | 0.00 | 91 | 1003.9 |
| 20260509080052 | 10 | 0 | 1.6 | 4.8 | 0.00 | 0.00 | 0.00 | 91 | 1003.6 |
| 20260509074554 | 10 | 0 | 0.0 | 4.8 | 0.00 | 0.00 | 0.00 | 90 | 1003.8 |
| 20260509073054 | 10 | 0 | 0.0 | 6.4 | 0.00 | 0.00 | 0.00 | 90 | 1003.9 |
| 20260509071555 | 10 | 9 | 1.6 | 8.0 | 0.00 | 0.00 | 0.00 | 90 | 1004.3 |
| 20260509070100 | 10 | 0 | 1.6 | 6.4 | 0.00 | 0.00 | 0.00 | 89 | 1004.5 |
| 20260509064554 | 10 | 5 | 0.0 | 6.4 | 0.00 | 0.00 | 0.00 | 88 | 1004.5 |
| 20260509063054 | 11 | 5 | 1.6 | 6.4 | 0.00 | 0.00 | 0.00 | 88 | 1004.6 |
| 20260509061613 | 11 | 5 | 1.6 | 6.4 | 0.00 | 0.00 | 0.00 | 87 | 1004.8 |
| 20260509060113 | 11 | 360 | 1.6 | 8.0 | 0.00 | 0.00 | 0.00 | 87 | 1004.9 |
| 20260509054554 | 11 | 360 | 1.6 | 8.0 | 0.00 | 0.00 | 0.00 | 86 | 1005.0 |
| 20260509053050 | 12 | 360 | 1.6 | 6.4 | 0.00 | 0.00 | 0.00 | 86 | 1005.1 |
| 20260509051558 | 12 | 360 | 1.6 | 9.7 | 0.00 | 0.00 | 0.00 | 85 | 1005.0 |
| 20260509050109 | 12 | 360 | 3.2 | 9.7 | 0.00 | 0.00 | 0.00 | 84 | 1004.9 |
| 20260509044558 | 12 | 360 | 1.6 | 9.7 | 0.00 | 0.00 | 0.00 | 83 | 1004.9 |
| 20260509043049 | 12 | 360 | 0.0 | 6.4 | 0.00 | 0.00 | 0.00 | 82 | 1005.0 |
| 20260509041550 | 12 | 360 | 1.6 | 8.0 | 0.00 | 0.00 | 0.00 | 80 | 1005.0 |
| 20260509040048 | 13 | 360 | 1.6 | 12.9 | 0.00 | 0.00 | 0.00 | 78 | 1005.1 |
| 20260509034552 | 13 | 360 | 3.2 | 6.4 | 0.00 | 0.00 | 0.00 | 77 | 1005.2 |
| 20260509033049 | 13 | 360 | 0.0 | 8.0 | 0.00 | 0.00 | 0.00 | 74 | 1005.4 |
| 20260509031551 | 13 | 360 | 1.6 | 9.7 | 0.00 | 0.00 | 0.00 | 74 | 1005.3 |
| 20260509030049 | 13 | 0 | 1.6 | 6.4 | 0.00 | 0.00 | 0.00 | 74 | 1005.2 |
| 20260509024548 | 13 | 0 | 1.6 | 8.0 | 0.00 | 0.00 | 0.00 | 73 | 1005.3 |
| 20260509023059 | 14 | 0 | 1.6 | 8.0 | 0.00 | 0.00 | 0.00 | 71 | 1005.3 |
| 20260509021555 | 13 | 360 | 0.0 | 6.4 | 0.00 | 0.00 | 0.00 | 65 | 1005.3 |
| 20260509020100 | 14 | 0 | 0.0 | 0.0 | 0.00 | 0.00 | 0.00 | 62 | 1005.3 |
| 20260509014550 | 14 | 0 | 0.0 | 0.0 | 0.00 | 0.00 | 0.00 | 60 | 1005.1 |
| 20260509013055 | 15 | 0 | 0.0 | 3.2 | 0.00 | 0.00 | 0.00 | 59 | 1005.2 |
| 20260509011549 | 15 | 5 | 1.6 | 4.8 | 0.00 | 0.00 | 0.00 | 58 | 1005.2 |
| 20260509010049 | 16 | 0 | 0.0 | 3.2 | 0.00 | 0.00 | 0.00 | 55 | 1005.2 |
| 20260509004552 | 16 | 0 | 0.0 | 4.8 | 0.00 | 0.00 | 0.00 | 53 | 1005.2 |
| 20260509003100 | 17 | 0 | 0.0 | 8.0 | 0.00 | 0.00 | 0.00 | 52 | 1005.2 |
| 20260509001549 | 17 | 9 | 0.0 | 6.4 | 0.00 | 0.00 | 0.00 | 53 | 1005.3 |
| 20260509000054 | 17 | 0 | 0.0 | 6.4 | 0.00 | 0.00 | 0.00 | 54 | 1005.3 |
| 20260508234548 | 17 | 0 | 0.0 | 6.4 | 0.00 | 0.00 | 0.00 | 51 | 1005.3 |
| 20260508233048 | 18 | 0 | 1.6 | 9.7 | 0.00 | 0.00 | 0.00 | 49 | 1005.3 |
| 20260508231550 | 18 | 5 | 1.6 | 12.9 | 0.00 | 0.00 | 0.00 | 48 | 1005.3 |
| 20260508230057 | 18 | 9 | 4.8 | 12.9 | 0.00 | 0.00 | 0.00 | 48 | 1005.3 |
| 20260508224548 | 18 | 5 | 3.2 | 12.9 | 0.00 | 0.03 | 0.00 | 49 | 1005.5 |
| 20260508223054 | 18 | 5 | 3.2 | 9.7 | 0.00 | 0.03 | 0.00 | 49 | 1005.6 |
| 20260508221554 | 18 | 5 | 3.2 | 14.5 | 0.00 | 0.03 | 0.00 | 50 | 1005.5 |
| 20260508220050 | 19 | 5 | 3.2 | 14.5 | 0.00 | 0.03 | 0.00 | 49 | 1005.6 |
| 20260508214547 | 19 | 5 | 1.6 | 12.9 | 0.00 | 0.03 | 0.00 | 47 | 1005.6 |
| 20260508213049 | 19 | 5 | 1.6 | 8.0 | 0.00 | 0.03 | 0.00 | 47 | 1005.6 |
| 20260508211550 | 18 | 0 | 1.6 | 6.4 | 0.00 | 0.03 | 0.00 | 50 | 1005.7 |
| 20260508210050 | 19 | 360 | 0.0 | 8.0 | 0.00 | 0.03 | 0.00 | 45 | 1005.9 |
| 20260508204548 | 20 | 5 | 3.2 | 17.7 | 0.00 | 0.03 | 0.00 | 46 | 1005.7 |
| 20260508203052 | 20 | 5 | 4.8 | 16.1 | 0.00 | 0.03 | 0.00 | 48 | 1006.0 |
| 20260508201550 | 20 | 5 | 6.4 | 16.1 | 0.00 | 0.03 | 0.00 | 44 | 1006.4 |
| 20260508200052 | 20 | 9 | 6.4 | 14.5 | 0.00 | 0.03 | 0.00 | 43 | 1006.7 |
| 20260508194619 | 20 | 5 | 1.6 | 8.0 | 0.00 | 0.03 | 0.00 | 44 | 1006.8 |
| 20260508193106 | 20 | 9 | 4.8 | 14.5 | 0.00 | 0.03 | 0.00 | 45 | 1007.0 |
| 20260508191559 | 20 | 5 | 3.2 | 12.9 | 0.00 | 0.03 | 0.00 | 46 | 1007.0 |
| 20260508190051 | 19 | 0 | 0.0 | 12.9 | 0.00 | 0.03 | 0.00 | 46 | 1007.2 |
| 20260508184556 | 18 | 5 | 3.2 | 9.7 | 0.00 | 0.03 | 0.00 | 50 | 1007.4 |
| 20260508183051 | 18 | 5 | 4.8 | 9.7 | 0.00 | 0.03 | 0.00 | 47 | 1007.7 |
| 20260508181618 | 18 | 5 | 3.2 | 8.0 | 0.00 | 0.03 | 0.00 | 57 | 1007.9 |
| 20260508180058 | 18 | 5 | 4.8 | 17.7 | 0.00 | 0.03 | 0.00 | 57 | 1008.0 |
| 20260508174553 | 18 | 5 | 4.8 | 16.1 | 0.00 | 0.03 | 0.00 | 57 | 1008.3 |
| 20260508173055 | 17 | 360 | 9.7 | 17.7 | 0.00 | 0.03 | 0.00 | 61 | 1008.5 |
| 20260508171553 | 17 | 5 | 0.0 | 12.9 | 0.00 | 0.03 | 0.00 | 62 | 1008.8 |
| 20260508170051 | 17 | 5 | 1.6 | 6.4 | 0.00 | 0.03 | 0.00 | 63 | 1008.9 |
| 20260508164557 | 17 | 9 | 1.6 | 8.0 | 0.00 | 0.03 | 0.00 | 63 | 1009.2 |
| 20260508163054 | 17 | 5 | 4.8 | 8.0 | 0.00 | 0.03 | 0.00 | 61 | 1009.2 |
| 20260508161604 | 17 | 0 | 1.6 | 8.0 | 0.00 | 0.03 | 0.00 | 64 | 1009.5 |
| 20260508160054 | 16 | 5 | 4.8 | 11.3 | 0.00 | 0.03 | 0.00 | 64 | 1009.5 |
| 20260508154558 | 16 | 5 | 1.6 | 11.3 | 0.00 | 0.03 | 0.00 | 66 | 1009.6 |
| 20260508153056 | 16 | 5 | 3.2 | 14.5 | 0.00 | 0.03 | 0.00 | 68 | 1009.7 |